When you browse on this site, cookies collect data to enhance your experience and personalize the content and advertising you see.
Visit our Privacy Policy to learn more. By continuing to use the site, you agree to this use of cookies and data.
  • In Hungary
  • List of Countries
  • For 7 days
  • Water Temperature
  • Satellite Maps
  • Weather Map
  • News
  • Weather Widgets
  • user-avatar
    Login

    Hourly Weather Spring Valley

    Today, 16 December, Sunday

    Time Temperature Precipitation Wind Pressure Humidity
    00:00 +3°C° 0 mm 5 mps 752 mmHg 77%
    01:00 +2°C° 0 mm 5 mps 751 mmHg 76%
    02:00 +2°C° 1.1 mm 5 mps 751 mmHg 77%
    03:00 +2°C° 1.1 mm 6 mps 751 mmHg 78%
    04:00 +1°C° 1.1 mm 6 mps 751 mmHg 79%
    05:00 +1°C° 2.1 mm 6 mps 750 mmHg 82%
    06:00 +1°C° 2.1 mm 6 mps 750 mmHg 84%
    07:00 +1°C° 2.1 mm 6 mps 750 mmHg 87%
    08:00 +1°C° 1.5 mm 6 mps 750 mmHg 87%
    09:00 +1°C° 1.5 mm 6 mps 749 mmHg 88%
    10:00 +1°C° 1.5 mm 6 mps 749 mmHg 88%
    11:00 +1°C° 1.1 mm 6 mps 748 mmHg 87%
    12:00 +2°C° 1.1 mm 6 mps 747 mmHg 86%
    13:00 +2°C° 1.1 mm 6 mps 746 mmHg 85%
    14:00 +2°C° 1.7 mm 6 mps 746 mmHg 86%
    15:00 +1°C° 1.7 mm 6 mps 745 mmHg 86%
    16:00 +1°C° 1.7 mm 6 mps 745 mmHg 87%
    17:00 +1°C° 1.6 mm 6 mps 745 mmHg 87%
    18:00 +1°C° 1.6 mm 6 mps 745 mmHg 87%
    19:00 +1°C° 1.6 mm 6 mps 744 mmHg 87%
    20:00 +1°C° 1.8 mm 6 mps 744 mmHg 87%
    21:00 +1°C° 1.8 mm 6 mps 744 mmHg 87%
    22:00 +1°C° 1.8 mm 6 mps 744 mmHg 88%
    23:00 +1°C° 0.1 mm 5 mps 744 mmHg 87%

    Tomorrow, 17 December, Monday

    Time Temperature Precipitation Wind Pressure Humidity
    00:00 +1°C° 0.1 mm 5 mps 743 mmHg 87%
    01:00 +1°C° 0.1 mm 4 mps 743 mmHg 87%
    02:00 0°C° 0 mm 4 mps 743 mmHg 87%
    03:00 +1°C° 0 mm 3 mps 743 mmHg 88%
    04:00 +1°C° 0 mm 3 mps 743 mmHg 88%
    05:00 +1°C° 0 mm 3 mps 743 mmHg 89%
    06:00 0°C° 0 mm 3 mps 743 mmHg 89%
    07:00 +1°C° 0 mm 2 mps 743 mmHg 90%
    08:00 +1°C° 0 mm 3 mps 743 mmHg 85%
    09:00 +2°C° 0 mm 3 mps 743 mmHg 81%
    10:00 +3°C° 0 mm 3 mps 743 mmHg 77%
    11:00 +3°C° 0 mm 4 mps 743 mmHg 74%
    12:00 +3°C° 0 mm 5 mps 742 mmHg 71%
    13:00 +3°C° 0 mm 6 mps 742 mmHg 68%
    14:00 +3°C° 0 mm 6 mps 742 mmHg 67%
    15:00 +2°C° 0 mm 6 mps 742 mmHg 65%
    16:00 +2°C° 0 mm 6 mps 742 mmHg 64%
    17:00 +1°C° 0 mm 6 mps 742 mmHg 66%
    18:00 -1°C° 0 mm 6 mps 743 mmHg 68%
    19:00 -2°C° 0 mm 6 mps 743 mmHg 70%
    20:00 -3°C° 0 mm 6 mps 744 mmHg 69%
    21:00 -3°C° 0 mm 6 mps 744 mmHg 69%
    22:00 -4°C° 0 mm 6 mps 744 mmHg 68%
    23:00 -4°C° 0 mm 6 mps 744 mmHg 67%

    Day after tomorrow, 18 December, Tuesday

    Time Temperature Precipitation Wind Pressure Humidity
    00:00 -4°C° 0 mm 6 mps 745 mmHg 65%
    01:00 -5°C° 0 mm 6 mps 745 mmHg 63%
    02:00 -5°C° 0 mm 6 mps 745 mmHg 62%
    03:00 -5°C° 0 mm 6 mps 746 mmHg 62%
    04:00 -6°C° 0 mm 6 mps 746 mmHg 61%
    05:00 -6°C° 0 mm 6 mps 747 mmHg 60%
    06:00 -6°C° 0 mm 6 mps 748 mmHg 60%
    07:00 -6°C° 0 mm 6 mps 748 mmHg 60%
    08:00 -5°C° 0 mm 6 mps 749 mmHg 57%
    09:00 -5°C° 0 mm 6 mps 749 mmHg 54%
    10:00 -4°C° 0 mm 6 mps 750 mmHg 51%
    11:00 -4°C° 0 mm 6 mps 750 mmHg 50%
    12:00 -3°C° 0 mm 6 mps 750 mmHg 49%
    13:00 -3°C° 0 mm 6 mps 750 mmHg 48%
    14:00 -3°C° 0 mm 6 mps 750 mmHg 50%
    15:00 -2°C° 0 mm 5 mps 750 mmHg 53%
    16:00 -4°C° 0 mm 5 mps 751 mmHg 55%
    17:00 -4°C° 0 mm 5 mps 751 mmHg 57%
    18:00 -4°C° 0 mm 4 mps 752 mmHg 60%
    19:00 -5°C° 0 mm 4 mps 752 mmHg 62%
    20:00 -5°C° 0 mm 4 mps 752 mmHg 62%
    21:00 -5°C° 0 mm 3 mps 753 mmHg 63%
    22:00 -5°C° 0 mm 3 mps 753 mmHg 63%
    23:00 -5°C° 0 mm 3 mps 753 mmHg 64%

    19 December, Wednesday

    Time Temperature Precipitation Wind Pressure Humidity
    00:00 -6°C° 0 mm 3 mps 753 mmHg 64%
    01:00 -6°C° 0 mm 3 mps 753 mmHg 65%
    02:00 -5°C° 0 mm 2 mps 753 mmHg 66%
    03:00 -5°C° 0 mm 2 mps 753 mmHg 66%
    04:00 -5°C° 0 mm 2 mps 753 mmHg 67%
    05:00 -5°C° 0 mm 2 mps 753 mmHg 67%
    06:00 -3°C° 0 mm 1 mps 753 mmHg 68%
    07:00 -3°C° 0 mm 1 mps 753 mmHg 68%
    08:00 -2°C° 0 mm 1 mps 753 mmHg 62%
    09:00 0°C° 0 mm 1 mps 753 mmHg 56%
    10:00 +1°C° 0 mm 1 mps 753 mmHg 50%
    11:00 +1°C° 0 mm 2 mps 753 mmHg 47%
    12:00 +2°C° 0 mm 2 mps 752 mmHg 44%
    13:00 +3°C° 0 mm 2 mps 751 mmHg 41%
    14:00 +3°C° 0 mm 2 mps 751 mmHg 46%
    15:00 +2°C° 0 mm 2 mps 751 mmHg 50%
    16:00 +2°C° 0 mm 2 mps 751 mmHg 54%
    17:00 +1°C° 0 mm 2 mps 751 mmHg 60%
    18:00 +1°C° 0 mm 2 mps 751 mmHg 66%
    19:00 -1°C° 0 mm 2 mps 752 mmHg 71%
    20:00 -1°C° 0 mm 2 mps 752 mmHg 75%
    21:00 -1°C° 0 mm 2 mps 752 mmHg 79%
    22:00 -2°C° 0 mm 2 mps 752 mmHg 82%
    23:00 -2°C° 0 mm 2 mps 751 mmHg 84%

    20 December, Thursday

    Time Temperature Precipitation Wind Pressure Humidity
    00:00 -2°C° 0 mm 2 mps 751 mmHg 86%
    01:00 -2°C° 0 mm 2 mps 751 mmHg 88%
    02:00 -1°C° 0 mm 2 mps 751 mmHg 89%
    03:00 +1°C° 0 mm 1 mps 751 mmHg 90%
    04:00 +1°C° 0 mm 1 mps 751 mmHg 91%
    05:00 +1°C° 0 mm 1 mps 751 mmHg 91%
    06:00 +1°C° 0 mm 1 mps 751 mmHg 91%
    07:00 +1°C° 0 mm 1 mps 751 mmHg 91%
    08:00 +2°C° 0 mm 1 mps 751 mmHg 86%
    09:00 +3°C° 0 mm 1 mps 751 mmHg 82%
    10:00 +4°C° 0 mm 1 mps 751 mmHg 77%
    11:00 +4°C° 0 mm 1 mps 751 mmHg 79%
    12:00 +5°C° 0 mm 1 mps 751 mmHg 81%
    13:00 +5°C° 0 mm 1 mps 750 mmHg 83%
    14:00 +5°C° 0 mm 1 mps 750 mmHg 85%
    15:00 +4°C° 0 mm 1 mps 750 mmHg 87%
    16:00 +4°C° 0 mm 1 mps 749 mmHg 90%
    17:00 +4°C° 0.2 mm 1 mps 749 mmHg 92%
    18:00 +3°C° 0.2 mm 2 mps 749 mmHg 94%
    19:00 +4°C° 0.2 mm 2 mps 749 mmHg 96%
    20:00 +4°C° 0.5 mm 2 mps 749 mmHg 96%
    21:00 +4°C° 0.5 mm 3 mps 748 mmHg 96%
    22:00 +4°C° 0.5 mm 3 mps 748 mmHg 96%
    23:00 +5°C° 0.6 mm 4 mps 747 mmHg 96%

    21 December, Friday

    Time Temperature Precipitation Wind Pressure Humidity
    00:00 +5°C° 0.6 mm 4 mps 746 mmHg 96%
    01:00 +6°C° 0.6 mm 4 mps 745 mmHg 95%
    02:00 +7°C° 1.3 mm 5 mps 744 mmHg 95%
    03:00 +8°C° 1.3 mm 5 mps 742 mmHg 95%
    04:00 +9°C° 1.3 mm 6 mps 741 mmHg 95%
    05:00 +9°C° 2.1 mm 6 mps 740 mmHg 94%
    06:00 +10°C° 2.1 mm 6 mps 740 mmHg 94%
    07:00 +10°C° 2.1 mm 7 mps 739 mmHg 93%
    08:00 +10°C° 0.7 mm 6 mps 738 mmHg 94%
    09:00 +10°C° 0.7 mm 5 mps 738 mmHg 95%
    10:00 +11°C° 0.7 mm 4 mps 737 mmHg 96%
    11:00 +11°C° 0.5 mm 4 mps 736 mmHg 96%
    12:00 +11°C° 0.5 mm 4 mps 735 mmHg 97%
    13:00 +11°C° 0.5 mm 3 mps 735 mmHg 97%
    14:00 +12°C° 0.7 mm 3 mps 734 mmHg 97%
    15:00 +12°C° 0.7 mm 3 mps 734 mmHg 97%
    16:00 +12°C° 0.7 mm 4 mps 733 mmHg 97%
    17:00 +12°C° 0.7 mm 4 mps 733 mmHg 94%
    18:00 +12°C° 0.7 mm 4 mps 733 mmHg 91%
    19:00 +10°C° 0.7 mm 5 mps 733 mmHg 89%
    20:00 +10°C° 0.3 mm 5 mps 734 mmHg 86%
    21:00 +9°C° 0.3 mm 5 mps 734 mmHg 83%
    22:00 +8°C° 0.3 mm 5 mps 734 mmHg 81%
    23:00 +7°C° 0.1 mm 5 mps 734 mmHg 80%
    Show more